Airfield :
LOGIN :

Register | Disclaimer

   EN    FR    IT 

 










Legend :    VFR   Marginal VFR   IFR   Intensive IFR   Very Intensive IFR
Visi :
Ceiling :
>= 8 km
>= 3000ft
5 to 8 km
1000 to 3000 ft
1500m to 5 km
500 to 1000 ft
800 to 1500m
200 to 500 ft
< 800m
< 200 ft
Symbols :   Thunderstorms  Fog  Heavy snow  Heavy precipitations  Wind > 20 kt
SIGMETs :     Misc.  Thunderstorms  Icing  Turbulence  Mountain Waves  Volcanic Ashes






- Airport Elevation : 37 ft
- IATA code : OLB


LIEO - Olbia Costa Smeralda

CURRENT METAR :
  • 010250Z VRB03KT CAVOK 07/07 Q1019

EXPIRED METARs :
  • 010220Z VRB01KT CAVOK 07/07 Q1019
  • 010150Z 28003KT 210V330 CAVOK 09/08 Q1019
  • 010120Z 21005KT CAVOK 11/09 Q1019
  • 010050Z 22007KT CAVOK 11/09 Q1019
  • 010020Z 21006KT CAVOK 10/09 Q1020

TAF TAF LIEO
Valid from the 01 at 00:00 until the 02 at 00:00 UTC


302300Z 0100/0124 VRB05KT 9999 SCT030
BECMG 0108/0110 25014KT
TEMPO 0115/0121 4000 RA



MET'MAP, your aeronautical weather chart ! - Copyright ORBIFLY December 2007 - Disclaimer

ORBIFLY MET'MAP TEAM :

Programming & Development : Alexandra Zaïnal
Concept & original design : Baudouin d'Aumeries
Assistance for programming : Marc-Olivier Méhu
Technical & hardware support : Manuel Goepfert

Contact : metmap@orbifly.com




SOURCES & CREDITS :

   NOAA